THOR ABLESTAR DEB, 225

Orbit data source: Space-Track

THOR ABLESTAR DEB, 225 is space debris in LEO originally from a launch on Thu, 29 Jun 1961 UTC launched from the Air Force Eastern Test Range (AFETR). Debris objects in space refer to the collection of defunct objects orbiting the Earth. Examples of debris include non-operational satellites, rocket bodies, and fragments generated from explosions, collisions, or faulty payload assembly.

Loading next visibility...
Identifier
225, 1961-015BM
Orbit
LEO
Last TLE update
3 hours ago
Origin
Manufacturer
Unknown
Mission
Spacecraft
Bus & Motor
Unknown
Mass
Unknown
Launch date (UTC)
1961-06-29 (64 years ago)
Launch vehicle
Unknown
Launch site
Air Force Eastern Test Range (AFETR)
Object type
Payload
Rocket body
Debris
Shape & HBR
Unknown
Radar Cross Section
Small (<0.1 m²)

Expand to show TLE details & history

TLE from 3 hours ago
0 THOR ABLESTAR DEB
1   225U 61015BM  25199.83784730  .00000847  00000-0  29770-3 0  9995
2   225  66.7967  47.3287 0093715 109.6014 251.5235 14.37323157310248
Epoch: 2025-07-18T20:06Z
TLE epoch observation values (Epoch: 2025-07-18T20:06:30.006Z)
Latitude
-0.00001°
Longitude
168.8201°
Altitude
791.265 km
Speed
7.447 km/s
True Right ascension
03h 09m 18s
True Declination
0° 00' 00"
Sunlit
Object was in daylight at epoch
Visualization orbit readout
Latitude
-30.07364°
Longitude
154.17509°
Altitude
830.524 km
Speed
7.409 km/s
Apparent Right ascension
01h 15m 44s
Apparent Declination
-35° 31' 53"
Sunlit
Object is in daylight
Visualization observer readout
Local Sidereal Time
12:05:14
Azimuth
281.899° WNW
Elevation
-75.412°
Doppler factor
1
Orbital elements
Apogee altitude
832.663 km
Perigee altitude
698.766 km
Semi-major axis
7,143.851 km
Eccentricity
0.00937
Inclination
66.7967°
RAAN
47.3287°
Arg. of periapsis
109.6014°
True anomaly
250.50878°
Mean anomaly
251.5235°
Eccentric anomaly
251.01576°
Mean motion
3.59455 °/min
Orbital period
100.15 mins
BSTAR
0.0002977
Loading maneuver chart data...
Loading SW <> Apogee altitude chart data...
|